SCP
0 0 0 0 0 0 0 0 0 0 0 0 0 0 0 0 0 0 0 0 0 0 0 0 0 0 0 0 0 0 0 0 0 0 0 0 0 0 0 0 0 0 0
0 0 0 0 0 0 0 0 0 0 0 0 0 0 0 0 0 0 0 0 0 0 0 0 0 0 0 0 0 0 0 0 0 0 0 0 0 0 0 0 0 0 0
0 0 0 0 0 0 0 0 0 0 0 0 0 0 0 0 0 0 0 0 0 0 0 0 0 0 0 0 0 0 0 0 0 0 0 0 0 0 0 0 0 0 0
0 0 0 0 0 0 0 0 0 0 0 0 0 0 0 0 0 0 0 0 0 0 0 0 0 0 0 0 0 0 0 0 0 0 0 0 0 0 0 0 0 0 0
0 0 0 0 0 0 0 0 0 0 0 0 0 0 0 0 0 0 0 0 0 0 0 0 0 0 0 0 0 0 0 0 0 0 0 0 0 0 0 0 0 0 0
0 0 0 0 0 0 0 0 0 0 0 0 0 0 0 0 0 0 0 0 0 0 0 0 0 0 0 0 0 0 0 0 0 0 0 0 0 0 0 0 0 0 0
0 0 0 0 0 0 0 0 0 0 0 0 0 0 0 0 0 0 0 0 0 0 0 0 0 0 0 0 0 0 0 0 0 0 0 0 0 0 0 0 0 0 0
0 0 0 0 0 0 0 0 0 0 0 0 0 0 0 0 0 0 0 0 0 0 0 0 0 0 0 0 0 0 0 0 0 0 0 0 0 0 0 0 0 0 0
0 0 0 0 0 0 0 0 0 0 0 0 0 0 0 0 0 0 0 0 0 0 0 0 0 0 0 0 0 0 0 0 0 0 0 0 0 0 0 0 0 0 0
0 0 0 0 0 0 0 0 0 0 0 0 0 0 0 0 0 0 0 0 0 0 0 0 0 0 0 0 0 0 0 0 0 0 0 0 0 0 0 0 0 0 0
0 0 0 0 0 0 0 0 0 0 0 0 0 0 0 0 0 0 0 0 0 0 0 0 0 0 0 0 0 0 0 0 0 0 0 0 0 0 0 0 0 0 0
0 0 0 0 0 0 0 0 0 0 0 0 0 0 0 0 0 0 0 0 0 0 0 0 0 0 0 0 0 0 0 0 0 0 0 0 0 0 0 0 0 0 0
0 0 0 0 0 0 0 0 0 0 0 0 0 0 0 0 0 0 0 0 0 0 0 0 0 0 0 0 0 0 0 0 0 0 0 0 0 0 0 0 0 0 0
0 0 0 0 0 0 0 0 0 0 0 0 0 0 0 0 0 0 0 0 0 0 0 0 0 0 0 0 0 0 0 0 0 0 0 0 0 0 0 0 0 0 0
0 0 0 0 0 0 0 0 0 0 0 0 0 0 0 0 0 0 0 0 0 0 0 0 0 0 0 0 0 0 0 0 0 0 0 0 0 0 0 0 0 0 0
0 0 0 0 0 0 0 0 0 0 0 0 0 0 0 0 0 0 0 0 0 0 0 0 0 0 0 0 0 0 0 0 0 0 0 0 0 0 0 0 0 0 0
0 0 0 0 0 0 0 0 0 0 0 0 0 0 0 0 0 0 0 0 0 0 0 0 0 0 0 0 0 0 0 0 0 0 0 0 0 0 0 0 0 0 0
0 0 0 0 0 0 0 0 0 0 0 0 0 0 0 0 0 0 0 0 0 0 0 0 0 0 0 0 0 0 0 0 0 0 0 0 0 0 0 0 0 0 0
0 0 0 0 0 0 0 0 0 0 0 0 0 0 0 0 0 0 0 0 0 0 0 0 0 0 0 0 0 0 0 0 0 0 0 0 0 0 0 0 0 0 0
0 0 0 0 0 0 0 0 0 0 0 0 0 0 0 0 0 0 0 0 0 0 0 0 0 0 0 0 0 0 0 0 0 0 0 0 0 0 0 0 0 0 0
0 0 0 0 0 0 0 0 0 0 0 0 0 0 0 0 0 0 0 0 0 0 0 0 0 0 0 0 0 0 0 0 0 0 0 0 0 0 0 0 0 0 0
0 0 0 0 0 0 0 0 0 0 0 0 0 0 0 0 0 0 0 0 0 0 0 0 0 0 0 0 0 0 0 0 0 0 0 0 0 0 0 0 0 0 0
0 0 0 0 0 0 0 0 0 0 0 0 0 0 0 0 0 0 0 0 0 0 0 0 0 0 0 0 0 0 0 0 0 0 0 0 0 0 0 0 0 0 0
0 0 0 0 0 0 0 0 0 0 0 0 0 0 0 0 0 0 0 0 0 0 0 0 0 0 0 0 0 0 0 0 0 0 0 0 0 0 0 0 0 0 0
0 0 0 0 0 0 0 0 0 0 0 0 0 0 0 0 0 0 0 0 0 0 0 0 0 0 0 0 0 0 0 0 0 0 0 0 0 0 0 0 0 0 0
0 0 0 0 0 0 0 0 0 0 0 0 0 0 0 0 0 0 0 0 0 0 0 0 0 0 0 0 0 0 0 0 0 0 0 0 0 0 0 0 0 0 0
Wind_Speed
2 4 10 12 13 14 14 15 15 13 14 15 16 17 17 17 18 18 18 17 17 17 17 17 17 17 17 16 17 17 16 15 16 17 19 19 20 20 20 19 16 12 19
5 5 10 12 13 14 14 14 13 12 13 14 15 16 17 17 18 17 17 17 17 17 17 17 17 16 16 16 17 17 17 16 15 15 16 16 18 19 19 19 18 13 20
7 7 9 12 13 13 13 13 12 12 13 14 15 16 16 17 17 17 16 16 16 16 16 16 16 16 16 16 17 17 18 18 18 16 15 8 11 18 18 18 18 19 19
8 6 8 11 12 13 12 12 12 12 13 13 15 15 16 16 16 16 16 16 16 16 16 16 16 16 16 16 18 18 19 19 18 15 9 8 8 16 18 17 17 18 18
6 6 8 11 12 12 12 12 12 12 12 13 14 15 16 16 15 15 15 15 15 16 16 16 16 16 16 17 18 19 20 20 19 14 9 8 7 16 17 17 16 16 16
5 5 7 10 11 12 11 11 11 11 12 12 13 14 15 15 15 14 15 15 15 16 16 16 16 16 16 18 19 19 20 19 15 9 9 8 7 15 17 17 16 15 15
5 4 5 9 9 10 10 11 10 10 11 11 12 13 14 14 14 14 14 14 15 16 16 16 16 16 17 18 19 19 18 17 10 8 8 7 9 16 17 16 16 15 15
5 4 4 6 7 8 9 9 9 9 9 10 12 13 13 14 14 14 13 14 14 15 16 16 16 16 16 17 18 18 17 14 11 9 7 7 12 15 16 15 15 15 14
6 5 4 3 3 5 8 8 8 9 9 9 10 11 11 12 12 12 12 13 13 14 14 15 15 15 15 16 17 17 16 16 9 6 7 6 12 15 16 15 15 15 14
6 5 4 3 2 1 3 7 8 8 8 9 9 10 10 11 10 10 9 11 12 12 12 12 13 14 14 15 15 15 14 12 8 7 5 7 14 16 16 16 15 15 15
5 5 4 4 3 1 1 4 6 7 7 8 8 10 9 6 6 6 7 9 10 10 11 11 11 12 12 13 14 14 11 5 6 5 5 13 17 17 17 17 17 17 17
2 3 4 4 3 2 0 2 2 2 3 3 4 5 4 5 4 6 8 9 9 8 9 10 11 10 8 5 8 10 5 6 5 5 7 18 19 19 19 19 19 19 19
0 2 4 4 3 1 1 2 2 2 3 3 3 4 5 5 4 4 3 4 5 6 5 6 6 5 5 4 5 5 6 5 4 5 8 19 20 21 21 21 21 21 21
1 2 4 3 1 1 3 4 4 4 3 3 4 5 5 5 5 4 4 4 3 3 4 4 3 5 6 6 6 7 7 5 5 5 9 19 22 23 23 23 23 22 22
2 1 3 1 2 4 5 5 6 5 5 5 4 5 6 6 6 6 4 4 4 4 4 4 4 6 6 6 6 7 8 8 9 8 8 20 23 24 25 25 25 25 24
2 1 2 3 4 6 7 7 6 5 5 6 6 6 7 7 7 7 6 5 5 4 4 5 5 5 5 5 7 7 8 8 10 10 8 12 22 24 25 25 25 25 25
4 2 3 4 6 8 9 8 6 6 6 6 6 7 8 8 8 7 6 6 4 4 5 5 6 5 5 6 7 7 8 9 10 11 9 8 9 19 24 25 25 25 25
5 4 4 5 7 8 9 8 7 7 7 6 6 7 9 9 9 8 7 6 5 5 5 5 4 5 5 5 6 6 6 7 10 10 9 9 8 9 15 24 24 25 25
6 6 6 6 8 9 10 8 8 7 7 6 6 6 7 9 8 8 7 5 5 6 5 5 5 4 5 5 6 6 6 6 7 9 10 10 9 9 8 16 22 23 24
6 7 7 8 9 10 9 9 8 8 6 6 5 6 8 8 8 9 7 6 6 6 5 5 7 6 5 4 7 7 6 5 6 7 8 8 9 10 9 10 9 13 22
8 8 9 10 10 9 8 6 7 6 5 6 5 7 7 8 8 8 8 7 6 6 5 5 5 8 7 3 4 4 4 5 5 5 5 7 9 9 9 9 7 7 9
10 10 10 11 11 9 5 5 5 6 5 5 5 6 7 7 7 8 9 7 6 7 8 7 5 4 5 5 3 3 2 3 3 4 4 7 7 6 8 9 8 8 7
12 12 11 12 11 9 9 9 10 7 5 4 5 5 5 7 7 8 8 8 7 7 7 6 5 6 5 5 5 4 4 0 3 3 4 5 6 5 6 6 7 8 9
12 10 11 10 10 11 12 13 15 9 7 5 4 5 6 6 7 8 8 8 8 6 7 6 5 4 5 4 4 5 4 3 2 3 4 4 5 5 5 6 6 6 7
11 11 10 10 11 12 11 11 12 10 8 8 6 8 7 6 6 7 8 7 7 6 7 7 6 6 4 4 3 3 4 4 4 2 3 5 5 4 5 4 3 4 5
10 11 11 12 11 12 11 10 12 16 15 14 11 9 7 5 5 6 7 7 7 6 6 6 6 8 6 6 4 3 3 3 2 1 1 3 4 4 5 3 2 3 4
Wind_Direction
138 137 117 109 107 105 103 101 99 97 95 94 92 89 85 81 76 71 66 63 60 58 57 56 55 53 52 49 48 47 47 50 55 56 57 55 52 51 48 45 42 38 43
158 139 118 111 107 106 105 104 103 100 97 97 96 92 88 83 79 73 68 64 61 58 57 55 54 52 50 46 44 43 45 53 64 59 56 52 52 52 50 46 44 42 41
133 129 118 114 112 111 110 109 107 104 102 101 100 97 93 88 83 78 73 68 63 60 59 57 55 53 50 46 44 44 51 64 68 61 53 42 46 52 51 49 46 44 41
130 125 123 120 119 117 115 113 111 109 106 106 106 103 99 94 88 83 77 72 67 63 61 60 57 55 52 50 48 51 63 69 65 58 48 39 38 50 49 49 48 45 42
122 117 126 127 125 123 121 119 117 115 113 111 111 110 105 100 95 89 83 76 71 66 64 62 60 58 56 54 54 60 69 68 62 52 39 34 33 46 47 46 47 45 43
114 117 128 127 129 130 129 129 126 123 120 117 116 117 112 108 103 96 89 81 74 70 67 65 63 61 60 59 60 68 73 67 59 47 37 29 32 44 45 44 43 42 42
101 102 124 126 131 135 139 138 136 133 129 126 125 124 122 117 112 105 97 89 81 75 72 69 67 66 65 63 65 72 75 69 63 50 37 24 34 46 44 42 40 39 39
90 83 98 122 136 145 148 148 147 143 140 136 135 133 132 128 123 116 107 97 89 83 79 74 71 70 69 68 70 73 71 67 62 51 37 21 34 44 43 40 39 38 37
65 63 58 79 125 146 157 159 158 154 151 147 142 138 138 136 130 124 116 106 97 90 85 79 75 72 69 68 70 72 72 67 58 44 36 22 33 41 41 38 36 36 34
56 47 36 35 52 113 154 167 165 162 160 155 149 144 143 140 135 132 124 114 105 97 89 83 77 72 68 67 67 69 69 62 51 41 24 23 35 39 38 35 33 32 31
44 29 20 15 18 31 167 170 165 163 166 160 155 150 142 137 134 129 122 115 108 97 88 82 78 72 65 60 63 65 64 57 52 39 25 33 37 38 37 33 30 28 26
41 4 6 357 344 338 74 132 132 131 132 134 141 148 138 134 127 117 109 103 95 83 76 76 75 68 64 51 52 58 55 56 51 39 34 40 39 39 37 33 29 25 22
39 346 337 333 326 330 95 105 100 91 86 85 109 136 127 119 113 103 97 88 80 72 63 61 58 55 57 57 55 54 54 55 50 41 37 44 42 40 38 35 31 27 23
106 350 333 322 321 103 105 97 95 91 84 80 82 108 119 114 107 101 91 82 74 71 71 61 59 56 56 56 58 58 56 57 54 49 45 47 45 41 39 36 32 28 24
114 9 337 336 133 120 106 99 94 90 86 81 76 85 107 113 109 99 88 76 68 66 70 66 61 57 53 51 55 61 61 62 63 58 48 49 47 42 39 35 31 27 24
142 92 29 71 111 113 105 101 96 92 89 82 78 82 95 105 107 100 89 76 67 65 69 70 67 64 57 57 58 61 67 71 69 65 57 47 46 42 38 33 29 25 22
159 137 103 98 105 108 105 101 97 91 90 86 84 82 90 98 103 102 95 83 72 70 72 69 63 60 59 60 61 65 73 75 74 67 59 51 40 38 35 32 27 23 21
160 146 125 118 112 109 107 103 98 92 90 88 88 89 91 96 102 100 95 86 77 73 69 68 57 63 55 60 69 67 71 75 74 69 60 51 43 35 27 29 25 21 19
165 152 137 129 122 114 107 101 95 90 86 86 86 90 92 94 96 99 94 87 81 74 64 70 59 68 65 70 80 71 65 68 69 67 59 48 40 33 25 22 21 18 17
166 158 147 138 133 125 114 106 97 85 79 76 79 88 94 95 96 98 94 84 81 81 69 68 75 64 64 74 87 74 60 62 64 59 55 47 35 27 19 17 15 12 15
170 165 160 152 150 142 135 127 116 104 96 85 76 80 87 91 93 97 98 86 80 81 73 72 81 68 50 33 83 69 43 46 65 54 49 47 30 19 12 11 11 13 8
179 175 171 165 163 161 143 128 119 118 101 87 83 75 76 87 94 100 99 95 87 85 69 56 69 81 52 28 85 100 57 5 14 34 36 41 24 9 7 4 7 13 11
185 181 176 171 167 153 138 126 118 107 99 88 89 79 70 82 86 97 98 97 87 86 84 69 70 91 94 45 45 103 113 84 324 338 20 32 13 1 356 350 7 11 17
186 178 174 169 160 151 150 149 146 144 140 139 132 111 91 84 91 94 96 96 93 91 89 80 71 81 101 88 54 46 79 121 89 333 333 354 356 348 345 350 356 6 21
176 174 170 161 158 158 161 159 146 135 128 130 122 113 104 91 89 94 98 100 98 94 93 91 82 76 78 93 92 83 68 59 67 96 313 324 330 318 326 330 348 6 21
171 170 167 163 163 163 161 161 151 144 143 143 142 134 125 114 102 101 102 101 102 102 101 99 93 88 86 86 83 81 97 97 81 91 265 293 303 300 310 314 351 10 13